GW3602 Weather Reports


Display with metric or nautical units.
time (UTC)temp
F
wind
direction
speed
MPH
gust
MPH
rain 1hr
in
rain 24hr
in
rain mn
in
humidity
%
barometer
mb
20260906064520 56 96 0.0 0.0 0.00 0.00 0.00 91 1017.0
20260906063004 57 96 0.0 0.0 0.00 0.00 0.00 90 1016.7
20260906061504 57 96 0.0 0.0 0.00 0.00 0.00 90 1016.9
20260906060016 58 96 0.0 0.0 0.00 0.00 0.00 90 1016.8
20260906054514 58 84 0.0 1.0 0.00 0.00 0.00 91 1016.6
20260906053031 57 105 0.0 1.0 0.00 0.00 0.00 91 1016.5
20260906051505 57 80 0.0 0.0 0.00 0.00 0.00 91 1016.6
20260906050022 57 80 0.0 0.0 0.00 0.00 0.00 91 1016.6
20260906044527 57 79 0.0 0.0 0.00 0.00 0.00 90 1016.6
20260906043020 57 79 0.0 0.0 0.00 0.00 0.00 90 1016.6
20260906041523 58 79 0.0 0.0 0.00 0.00 0.00 89 1016.8
20260906040005 58 79 0.0 0.0 0.00 0.00 0.00 89 1016.9
20260906034508 58 80 0.0 0.0 0.00 0.00 0.00 89 1016.8
20260906033028 58 80 0.0 0.0 0.00 0.00 0.00 89 1016.7
20260906031527 59 79 0.0 0.0 0.00 0.00 0.00 88 1016.9
20260906030025 59 80 0.0 0.0 0.00 0.00 0.00 87 1017.0
20260906024508 59 79 0.0 0.0 0.00 0.00 0.00 85 1016.6
20260906023012 60 79 0.0 0.0 0.00 0.00 0.00 84 1016.6
20260906021516 60 80 0.0 0.0 0.00 0.00 0.00 83 1016.5
20260906020023 61 79 0.0 0.0 0.00 0.00 0.00 81 1016.4
20260906014533 61 80 0.0 0.0 0.00 0.00 0.00 81 1016.3
20260906013013 62 79 0.0 0.0 0.00 0.00 0.00 79 1016.2
20260906011510 64 79 0.0 0.0 0.00 0.00 0.00 76 1016.2
20260906010018 63 66 0.0 0.0 0.00 0.00 0.00 76 1016.0
20260906004527 64 66 0.0 0.0 0.00 0.00 0.00 75 1015.9
20260906003028 65 66 0.0 0.0 0.00 0.00 0.00 73 1016.1
20260906001531 66 66 0.0 0.0 0.00 0.00 0.00 70 1015.9
20260906000016 67 66 0.0 1.0 0.00 0.00 0.00 68 1015.9
20260905234517 69 345 0.0 1.0 0.00 0.00 0.00 64 1015.8
20260905233026 70 352 0.0 3.0 0.00 0.00 0.00 62 1015.7
20260905231530 72 57 2.0 8.0 0.00 0.00 0.00 60 1015.5
20260905230038 73 52 2.0 7.0 0.00 0.00 0.00 59 1015.4
20260905224525 73 80 4.0 7.0 0.00 0.00 0.00 61 1015.4
20260905223023 73 343 1.0 6.0 0.00 0.00 0.00 62 1015.3
20260905221527 74 335 0.0 7.0 0.00 0.00 0.00 66 1015.0
20260905220038 74 91 2.0 9.0 0.00 0.00 0.00 63 1015.0
20260905214532 75 41 2.0 7.0 0.00 0.00 0.00 62 1014.9
20260905213020 76 331 1.0 7.0 0.00 0.00 0.00 63 1014.7
20260905211525 76 257 1.0 5.0 0.00 0.00 0.00 66 1014.6
20260905210031 76 319 1.0 5.0 0.00 0.00 0.00 69 1014.6
20260905204516 76 302 2.0 6.0 0.00 0.00 0.00 67 1014.6
20260905203014 77 95 2.0 7.0 0.00 0.00 0.00 68 1014.6
20260905201516 77 238 3.0 7.0 0.00 0.00 0.00 68 1014.7
20260905200004 78 300 2.0 5.0 0.00 0.00 0.00 68 1014.8
20260905194506 77 232 2.0 6.0 0.00 0.00 0.00 70 1014.8
20260905193012 77 112 3.0 8.0 0.00 0.00 0.00 69 1014.8
20260905191516 77 85 1.0 5.0 0.00 0.00 0.00 72 1014.9
20260905190020 76 89 3.0 7.0 0.00 0.00 0.00 73 1015.1
20260905184506 75 60 3.0 7.0 0.00 0.00 0.00 75 1015.2
20260905183009 76 37 1.0 4.0 0.00 0.00 0.00 73 1015.3
20260905181515 75 127 3.0 5.0 0.00 0.01 0.00 75 1015.4
20260905180024 75 148 2.0 8.0 0.00 0.01 0.00 75 1015.5
20260905174534 76 104 2.0 4.0 0.00 0.01 0.00 75 1015.4
20260905173007 76 284 1.0 6.0 0.00 0.01 0.00 73 1015.4
20260905171519 76 35 3.0 6.0 0.00 0.01 0.00 73 1015.5
20260905170020 76 96 1.0 5.0 0.00 0.01 0.00 76 1015.5
20260905164530 74 39 1.0 7.0 0.00 0.03 0.00 80 1015.6
20260905163027 74 80 3.0 7.0 0.00 0.03 0.00 79 1015.7
20260905161509 75 29 1.0 5.0 0.00 0.03 0.00 80 1015.8
20260905160014 74 69 0.0 4.0 0.00 0.03 0.00 81 1015.9
20260905154518 74 78 1.0 4.0 0.00 0.03 0.00 83 1015.8
20260905153027 73 77 1.0 3.0 0.00 0.03 0.00 84 1015.9
20260905151534 72 58 0.0 1.0 0.00 0.03 0.00 86 1015.7
20260905150028 71 3 0.0 1.0 0.00 0.04 0.00 87 1015.6
20260905144516 71 3 0.0 2.0 0.00 0.06 0.00 88 1015.5
20260905143025 71 64 0.0 1.0 0.00 0.09 0.00 91 1015.2
20260905141529 70 101 0.0 1.0 0.00 0.10 0.00 93 1015.3
20260905140028 69 83 1.0 2.0 0.00 0.11 0.00 93 1015.3
20260905134533 69 106 0.0 2.0 0.00 0.25 0.00 93 1015.2
20260905133020 69 107 0.0 2.0 0.00 0.30 0.00 94 1015.3
20260905131527 69 127 0.0 2.0 0.00 0.30 0.00 94 1015.5
20260905130031 68 107 0.0 2.0 0.00 0.30 0.00 94 1015.7
20260905124538 68 108 1.0 2.0 0.00 0.30 0.00 94 1015.5
20260905123031 68 122 0.0 1.0 0.00 0.30 0.00 94 1015.5
20260905121525 68 64 0.0 0.0 0.00 0.30 0.00 94 1015.4
20260905120028 67 62 0.0 1.0 0.00 0.30 0.00 94 1015.4
20260905114508 67 194 0.0 0.0 0.00 0.30 0.00 94 1015.2
20260905113014 67 197 0.0 0.0 0.00 0.30 0.00 94 1015.1
20260905111506 67 198 0.0 0.0 0.00 0.30 0.00 94 1015.0
20260905110004 67 198 0.0 0.0 0.00 0.30 0.00 94 1015.3
20260905104507 67 198 0.0 0.0 0.00 0.30 0.00 94 1015.5
20260905103018 67 198 0.0 0.0 0.00 0.30 0.00 94 1015.7
20260905101516 67 197 0.0 0.0 0.00 0.30 0.00 93 1015.8
20260905100005 67 219 0.0 0.0 0.00 0.31 0.00 93 1015.5
20260905094508 67 105 0.0 0.0 0.00 0.31 0.00 94 1015.2
20260905093009 67 105 0.0 0.0 0.00 0.31 0.00 93 1014.9
20260905091529 67 105 0.0 1.0 0.00 0.31 0.00 93 1014.8
20260905090020 67 189 0.0 1.0 0.00 0.31 0.00 93 1014.9
20260905084505 67 160 0.0 2.0 0.00 0.31 0.00 94 1014.8
20260905083007 67 130 0.0 1.0 0.00 0.31 0.00 93 1014.0
20260905081510 67 108 0.0 1.0 0.00 0.31 0.00 93 1014.1
20260905080018 67 89 0.0 1.0 0.00 0.31 0.00 94 1014.7
20260905074525 67 89 0.0 1.0 0.00 0.31 0.00 94 1014.4
20260905073026 66 102 0.0 1.0 0.00 0.31 0.00 93 1014.5
20260905071508 66 128 0.0 1.0 0.00 0.31 0.00 93 1014.5
20260905070021 66 129 0.0 1.0 0.00 0.31 0.00 93 1014.4